Location: Overspoor
(51.4747°N, 5.6641°E)
Time: 20:36:40
(UTC+02:00)

NANOSAT C BR1 - Pass Details

Date: 07 July 2022
Orbit: 584 x 599 km, 98.0° (Epoch: 07 August)

Event Time Altitude Azimuth Distance (km) Brightness Sun altitude
Rises 02:26:55 0° 31° (NNE) 2,855 ? -15.3°
Reaches altitude 10° 02:30:21 10° 61° (ENE) 1,948 ? -15.2°
Maximum altitude 02:32:11 13° 87° (E) 1,784 ? -15.1°
Drops below altitude 10° 02:34:00 10° 113° (ESE) 1,943 ? -15.1°
Enters shadow 02:35:51 - 132° (SE) 2,364 ? -15.0°
